Tracking 23583 objects as of 28-Jul-2021
HD Live streaming from Space Station
objects crossing your sky now

ARABSAT 2B

Track ARABSAT 2B now!
ARABSAT 2B is classified as:


NORAD ID: 24652
Int'l Code: 1996-063A
Perigee: 36,012.2 km
Apogee: 36,059.9 km
Inclination: 6.7 °
Period: 1,448.5 minutes
Semi major axis: 42407 km
RCS: 3.8888 m2 (large)
Launch date: November 13, 1996
Source: Arab Satellite Communications Organization (AB)
Launch site: FRENCH GUIANA (FRGUI)

Second generation; radio and tv communications to Middle East.
aabbcc
Your satellite tracking list
Your tracking list is empty




NASA's NSSDC Master Catalog

Two Line Element Set (TLE):
1 24652U 96063A   21208.72282521  .00000024  00000-0  00000+0 0  9990
2 24652   6.7275  62.7750 0005630  43.0244 303.3061  0.99413656 90701
Source of the keplerian elements: AFSPC